Weather History for Albert Lea, MN

Change the Weather History Date:

Sunday, August 4, 2013

  Actual Average Record
Temperature  
Mean Temperature 62 °F -  
Max Temperature 75 °F 76 °F 86 °F (2001)
Min Temperature 50 °F 59 °F 35 °F (1999)
Degree Days  
Heating Degree Days 2    
Growing Degree Days 12 (Base 50)    
Moisture  
Dew Point 52 °F    
Average Humidity 67    
Maximum Humidity 100    
Minimum Humidity 44    
Precipitation  
Precipitation 0.00 in - - ()
Sea Level Pressure  
Sea Level Pressure 30.17 in    
Wind  
Wind Speed 2 mph (SSE)    
Max Wind Speed 9 mph    
Max Gust Speed -    
Visibility 10 miles    
Events      
Averages and records for this station are not official NWS values.
T = Trace of Precipitation, MM = Missing Value Source: NWS Daily Summary

Daily Weather History Graph

Daily Weather History Graph

Search for Another Location

Airport:

Trip Planner

Search our weather history database for the weather conditions in past years. The results will help you decide how hot, cold, wet, or windy it might be!

Date:

Astronomy

Aug. 04, 2013 Rise Set
Actual Time 6:06 AM CDT 8:32 PM CDT
Civil Twilight 5:33 AM CDT 9:04 PM CDT
Nautical Twilight 4:53 AM CDT 9:44 PM CDT
Astronomical Twilight 4:08 AM CDT 10:29 PM CDT
Moon 4:06 AM CDT (8/4) 6:55 PM CDT (8/4)
Length of Visible Light 15h 30m
Length of Day
14h 26m
Waning Crescent, 4% of the Moon is Illuminated
Aug 4
Waning Crescent
Aug 6
New
Aug 14
First Quarter
Aug 20
Full
Aug 28
Last Quarter

Hourly Weather History & Observations

Time (CDT) Temp. Dew Point Humidity Pressure Visibility Wind Dir Wind Speed Gust Speed Precip Events Conditions
12:13 AM 55.4 °F 53.6 °F 94% 30.21 in 10.0 mi Calm Calm - N/A   Clear
12:33 AM 55.4 °F 53.6 °F 94% 30.22 in 10.0 mi Calm Calm - N/A   Clear
12:52 AM 55.4 °F 51.8 °F 88% 30.22 in 10.0 mi Calm Calm - N/A   Clear
1:13 AM 53.6 °F 51.8 °F 94% 30.23 in 10.0 mi Calm Calm - N/A   Clear
1:33 AM 55.4 °F 51.8 °F 88% 30.23 in 10.0 mi Calm Calm - N/A   Clear
1:52 AM 53.6 °F 51.8 °F 94% 30.23 in 10.0 mi Calm Calm - N/A   Clear
2:13 AM 53.6 °F 51.8 °F 94% 30.23 in 10.0 mi Calm Calm - N/A   Clear
2:33 AM 53.6 °F 51.8 °F 94% 30.23 in 10.0 mi Calm Calm - N/A   Clear
2:52 AM 53.6 °F 51.8 °F 94% 30.22 in 10.0 mi Calm Calm - N/A   Clear
3:13 AM 51.8 °F 50.0 °F 94% 30.20 in 10.0 mi Calm Calm - N/A   Clear
3:33 AM 51.8 °F 50.0 °F 94% 30.20 in 10.0 mi North 3.5 mph - N/A   Clear
3:52 AM 51.8 °F 50.0 °F 94% 30.19 in 10.0 mi Calm Calm - N/A   Clear
4:13 AM 51.8 °F 51.8 °F 100% 30.19 in 10.0 mi Calm Calm - N/A   Clear
4:33 AM 51.8 °F 50.0 °F 94% 30.19 in 10.0 mi Calm Calm - N/A   Clear
4:52 AM 51.8 °F 50.0 °F 94% 30.18 in 10.0 mi Calm Calm - N/A   Clear
5:13 AM 51.8 °F 50.0 °F 94% 30.19 in 10.0 mi Calm Calm - N/A   Clear
5:33 AM 50.0 °F 48.2 °F 94% 30.21 in 10.0 mi Calm Calm - N/A   Clear
5:52 AM 50.0 °F 48.2 °F 94% 30.21 in 10.0 mi Calm Calm - N/A   Clear
6:13 AM 51.8 °F 50.0 °F 94% 30.21 in 10.0 mi Calm Calm - N/A   Clear
6:33 AM 50.0 °F 48.2 °F 94% 30.21 in 10.0 mi Calm Calm - N/A   Clear
6:52 AM 53.6 °F 51.8 °F 94% 30.21 in 10.0 mi Calm Calm - N/A   Clear
7:13 AM 55.4 °F 53.6 °F 94% 30.22 in 10.0 mi Calm Calm - N/A   Clear
7:33 AM 57.2 °F 55.4 °F 94% 30.22 in 10.0 mi Calm Calm - N/A   Clear
7:52 AM 60.8 °F 53.6 °F 77% 30.23 in 10.0 mi Calm Calm - N/A   Scattered Clouds
8:13 AM 64.4 °F 51.8 °F 64% 30.23 in 10.0 mi Calm Calm - N/A   Clear
8:33 AM 64.4 °F 51.8 °F 64% 30.24 in 10.0 mi Calm Calm - N/A   Clear
8:52 AM 66.2 °F 51.8 °F 60% 30.24 in 10.0 mi Calm Calm - N/A   Clear
9:13 AM 69.8 °F 53.6 °F 56% 30.23 in 10.0 mi SSW 3.5 mph - N/A   Clear
9:33 AM 69.8 °F 51.8 °F 53% 30.23 in 10.0 mi SE 3.5 mph - N/A   Clear
9:53 AM 71.6 °F 51.8 °F 50% 30.22 in 10.0 mi SSE 5.8 mph - N/A   Clear
10:13 AM 69.8 °F 51.8 °F 53% 30.22 in 10.0 mi SSE 4.6 mph - N/A   Clear
10:32 AM 69.8 °F 51.8 °F 53% 30.22 in 10.0 mi SSE 4.6 mph - N/A   Clear
10:53 AM 69.8 °F 51.8 °F 53% 30.20 in 10.0 mi SE 5.8 mph - N/A   Clear
11:13 AM 71.6 °F 53.6 °F 53% 30.19 in 10.0 mi SE 4.6 mph - N/A   Clear
11:33 AM 71.6 °F 51.8 °F 50% 30.19 in 10.0 mi ESE 4.6 mph - N/A   Clear
11:53 AM 71.6 °F 51.8 °F 50% 30.19 in 10.0 mi SE 4.6 mph - N/A   Clear
12:13 PM 71.6 °F 51.8 °F 50% 30.17 in 10.0 mi SE 6.9 mph - N/A   Clear
12:33 PM 69.8 °F 53.6 °F 56% 30.18 in 10.0 mi South 3.5 mph - N/A   Clear
12:53 PM 71.6 °F 53.6 °F 53% 30.17 in 10.0 mi South 5.8 mph - N/A   Clear
1:13 PM 71.6 °F 51.8 °F 50% 30.18 in 10.0 mi South 6.9 mph - N/A   Scattered Clouds
1:33 PM 71.6 °F 51.8 °F 50% 30.18 in 10.0 mi South 4.6 mph - N/A   Clear
1:53 PM 71.6 °F 51.8 °F 50% 30.18 in 10.0 mi SSE 4.6 mph - N/A   Scattered Clouds
2:12 PM 71.6 °F 51.8 °F 50% 30.19 in 10.0 mi Calm Calm - N/A   Scattered Clouds
2:33 PM 71.6 °F 51.8 °F 50% 30.18 in 10.0 mi SSE 4.6 mph - N/A   Mostly Cloudy
2:53 PM 73.4 °F 51.8 °F 47% 30.17 in 10.0 mi SSE 3.5 mph - N/A   Scattered Clouds
3:12 PM 73.4 °F 50.0 °F 44% 30.16 in 10.0 mi SE 6.9 mph - N/A   Clear
3:33 PM 75.2 °F 51.8 °F 44% 30.16 in 10.0 mi ESE 4.6 mph - N/A   Clear
3:53 PM 75.2 °F 51.8 °F 44% 30.15 in 10.0 mi SSE 8.1 mph - N/A   Clear
4:12 PM 73.4 °F 51.8 °F 47% 30.14 in 10.0 mi SSE 5.8 mph - N/A   Scattered Clouds
4:33 PM 75.2 °F 51.8 °F 44% 30.14 in 10.0 mi South 6.9 mph - N/A   Scattered Clouds
4:53 PM 73.4 °F 51.8 °F 47% 30.14 in 10.0 mi South 4.6 mph - N/A   Mostly Cloudy
5:13 PM 73.4 °F 51.8 °F 47% 30.14 in 10.0 mi SE 4.6 mph - N/A   Mostly Cloudy
5:33 PM 73.4 °F 51.8 °F 47% 30.13 in 10.0 mi SE 6.9 mph - N/A   Mostly Cloudy
5:52 PM 73.4 °F 51.8 °F 47% 30.12 in 10.0 mi SE 4.6 mph - N/A   Mostly Cloudy
6:13 PM 73.4 °F 53.6 °F 50% 30.12 in 10.0 mi SE 4.6 mph - N/A   Overcast
6:33 PM 73.4 °F 53.6 °F 50% 30.11 in 10.0 mi SSE 4.6 mph - N/A   Overcast
6:52 PM 73.4 °F 53.6 °F 50% 30.10 in 10.0 mi ESE 3.5 mph - N/A   Overcast
7:13 PM 73.4 °F 53.6 °F 50% 30.10 in 10.0 mi SE 5.8 mph - N/A   Overcast
7:33 PM 73.4 °F 53.6 °F 50% 30.09 in 10.0 mi SE 8.1 mph - N/A   Mostly Cloudy
7:52 PM 71.6 °F 53.6 °F 53% 30.09 in 10.0 mi SE 4.6 mph - N/A   Scattered Clouds
8:13 PM 69.8 °F 53.6 °F 56% 30.08 in 10.0 mi SE 5.8 mph - N/A   Clear
8:33 PM 68.0 °F 53.6 °F 60% - 10.0 mi SE 5.8 mph - N/A   Clear
8:53 PM 68.0 °F 53.6 °F 60% 30.08 in 10.0 mi SE 4.6 mph - N/A   Clear
9:13 PM 66.2 °F 55.4 °F 68% 30.08 in 10.0 mi SE 4.6 mph - N/A   Clear
9:33 PM 66.2 °F 55.4 °F 68% 30.07 in 10.0 mi SSE 4.6 mph - N/A   Clear
9:53 PM 66.2 °F 55.4 °F 68% 30.07 in 10.0 mi SE 5.8 mph - N/A   Clear
10:12 PM 66.2 °F 55.4 °F 68% 30.08 in 10.0 mi SSE 4.6 mph - N/A   Clear
10:33 PM 66.2 °F 55.4 °F 68% 30.07 in 10.0 mi South 5.8 mph - N/A   Clear
10:53 PM 66.2 °F 55.4 °F 68% 30.07 in 10.0 mi South 4.6 mph - N/A   Clear
11:12 PM 66.2 °F 55.4 °F 68% 30.06 in 10.0 mi SSE 5.8 mph - N/A   Clear
11:33 PM 66.2 °F 55.4 °F 68% 30.04 in 10.0 mi South 8.1 mph - N/A   Scattered Clouds
11:53 PM 66.2 °F 55.4 °F 68% 30.04 in 10.0 mi South 9.2 mph - N/A   Scattered Clouds